Miscellaneous Local Product
Issued by NWS North Platte, NE

Home | Current Version | Previous Version | Graphics & Text | Print | Product List | Glossary On
Versions: 1 2 3 4 5 6 7 8 9 10 11 12 13 14 15 16 17 18 19 20 21 22 23 24 25 26 27 28 29 30 31 32 33 34 35 36 37 38 39 40 41 42 43 44 45 46 47 48 49 50
000
AXUS43 KLBF 072210
MISLBF


WESTERN AND NORTH CENTRAL NEBRASKA HOURLY WEATHER ROUNDUP
NATIONAL WEATHER SERVICE NORTH PLATTE NE
400 PM CST WED DEC 07 2016

NOTE: "FAIR" INDICATES FEW OR NO CLOUDS BELOW 12,000 FEET WITH NO
SIGNIFICANT WEATHER AND/OR OBSTRUCTIONS TO VISIBILITY.

NOTE: STATIONS NOT REPORTING VARIABLES SUCH AS SKY/WEATHER OR
PRESSURE ARE PROVIDED BY RAWS AND APRS NETWORKS AND ARE NOT UNDER
NATIONAL WEATHER SERVICE QUALITY CONTROL.

...OBSERVATIONS IN AND NEAR THE EASTERN PANHANDLE OF NEBRASKA...

CITY           SKY/WX    TMP DP  RH WIND       PRES   REMARKS
PINE RIDGE     SUNNY     10   1  67 W9        30.36R WCI  -3
CHADRON        SUNNY     12  -4  48 W23G32    30.38R WCI  -7
ALLIANCE       MOSUNNY   14  -1  51 N13       30.30R WCI   0
SIDNEY         MOSUNNY   13   2  61 N14       30.30R WCI  -2
CRESCENT LAKE    N/A     14   1  57 N10G17      N/A  WCI   1
$$

...OBSERVATIONS IN NORTHERN NEBRASKA AND FAR SOUTHERN SOUTH DAKOTA...

CITY           SKY/WX    TMP DP  RH WIND       PRES   REMARKS
WINNER         FAIR      16   2  54 NW25      30.37R WCI  -3
VALENTINE      CLEAR     15   0  51 NW17G30   30.35R WCI  -1
THEDFORD       CLEAR     19   2  48 NW18G25   30.33R WCI   3
AINSWORTH      CLEAR     16   3  55 NW20G25   30.34R WCI  -1
O`NEILL        CLEAR     19   4  52 NW17G24   30.34R WCI   3
ORD            CLEAR     20   0  41 NW16      30.34R WCI   6
BROKEN BOW     CLEAR     20   1  43 NW17      30.33R WCI   5
VALENTINE NWR    N/A     15  -1  48 NW17G26     N/A  WCI  -1
BUTTE            N/A     14   4  64 W26G35      N/A  WCI  -6
HALSEY           N/A     20  -1  40 NW9G18      N/A  WCI   9
CHAMBERS         N/A     18   1  46 CALM        N/A
EWING            N/A     18   5  56 W12G20      N/A  WCI   6
$$

...OBSERVATIONS IN SOUTHWEST NEBRASKA AND FAR NORTHEAST COLORADO...

CITY           SKY/WX    TMP DP  RH WIND       PRES   REMARKS
WRAY           CLOUDY    18  10  73 NW12      30.32  WCI   5
HOLYOKE        FAIR      19   9  63 NW9       30.33R WCI   9
IMPERIAL       LGT SNOW  16   8  71 NW14      30.34R WCI   2
OGALLALA       CLOUDY    18   9  66 NW7       30.34R WCI   9
NORTH PLATTE   MOSUNNY   22   3  44 NW12      30.34R WCI  10
MCCOOK         CLOUDY    19   9  65 NW10      30.37R WCI   7
LEXINGTON      MOSUNNY   23   3  42 NW16      30.35R WCI   9
STAPLETON        N/A     17   2  52 CALM        N/A
GOTHENBURG       N/A     18   1  48 NW12        N/A  WCI   6
CALLAWAY         N/A     18   4  53 NW13        N/A  WCI   5
$$

...OBSERVATIONS IN CENTRAL LINCOLN COUNTY AREA...

CITY           SKY/WX    TMP DP  RH WIND       PRES   REMARKS
N.P. AIRPORT   MOSUNNY   22   3  44 NW12      30.34R WCI  10
N.P. DOWNTOWN    N/A     19   8  61 NW9         N/A  WCI   8
N.P. SOUTHEAST   N/A     20   7  56 N7          N/A  WCI  11
N.P. HILLCREST   N/A     18   6  59 NW13        N/A  WCI   5
$$

...SOME OBSERVATIONS FROM AROUND THE REGION...

CITY           SKY/WX    TMP DP  RH WIND       PRES   REMARKS
LARAMIE        SUNNY      3  -6  66 N9        30.08R WCI -12
CHEYENNE       SUNNY      6  -4  63 N14       30.17R WCI -11
DENVER         FLURRIES  10   3  73 N8        30.22R WCI  -2
AKRON          FLURRIES  10   3  73 N13       30.27R WCI  -5
SCOTTSBLUFF    SUNNY     13  -1  54 NW18      30.34R WCI  -4
RAPID CITY     CLEAR     12  -4  48 N23       30.34R WCI  -7
BISMARCK       MIX PCPN   4  -2  76 W22G31    30.34R WCI -18
PIERRE         CLOUDY    13   3  64 NW30G38   30.36R WCI  -8
SIOUX FALLS    PTCLDY    18   6  59 W23G33    30.24R WCI   0
OMAHA          MOCLDY    24   7  48 NW20      30.34R WCI  10
GRAND ISLAND   CLEAR     22   3  44 NW14      30.35R WCI   9
KANSAS CITY    CLOUDY    26  13  57 NW10      30.33R WCI  16
WICHITA        FLURRIES  29  21  72 N17       30.33R WCI  17
OKLAHOMA CITY  CLOUDY    34  29  82 N12       30.21R WCI  25
DALLAS         CLOUDY    51  39  63 N8        30.10R
AMARILLO       CLOUDY    32  20  61 N16       30.16R WCI  21
DODGE CITY     CLOUDY    23  18  81 N16       30.31R WCI  10
HAYS           CLOUDY    23  16  74 N14       30.37R WCI  11
GOODLAND       LGT SNOW  16  10  77 N13       30.30R WCI   2
$$




USA.gov is the U.S. government's official web portal to all federal, state and local government web resources and services.